Location: Curupao
(10.4996°N, 66.6442°W)
Time: 00:20:13
(UTC+00:00)

Cosmos 1975 Rocket - Pass Details

Date: 23 May 2024
Orbit: 601 x 629 km, 82.5° (Epoch: 12 June)

Event Time Altitude Azimuth Distance (km) Brightness Sun altitude
Exits shadow 08:40:24 34° 293° (WNW) 1,005 3.8 -19.6°
Drops below altitude 10° 08:43:45 10° 341° (NNW) 1,938 5.7 -18.8°
Sets 08:46:06 0° 351° (N) 2,838 6.7 -18.3°
